Location: Fluertsh�userhof
(48.7537°N, 10.3850°E)
Time: 05:12:25
(UTC+00:00)

Cosmos 2278 Rocket - Pass Details

Date: 18 September 2020
Orbit: 841 x 845 km, 71.0° (Epoch: 22 October)

Event Time Altitude Azimuth Distance (km) Brightness Sun altitude
Exits shadow 23:04:21 21° 328° (NNW) 1,822 4.3 -39.8°
Drops below altitude 10° 23:08:01 10° 8° (N) 2,472 5.3 -39.8°
Sets 23:11:06 0° 24° (NNE) 3,410 6.1 -39.9°
